Home   Weather   Helsingborg   Past weeks
Flag for Sweden

Past Weather in Helsingborg, Sweden — Yesterday and Last 2 Weeks

Now
45 °F

Fog.


Feels Like: 45 °F
Forecast: 56 / 50 °F
Wind: No wind

Location: Ljungbyhed

Current Time: Oct 21, 2019 at 7:42:45 am

Latest Report: Oct 21, 2019 at 6:50 am


Visibility: 0 mi

Pressure: 30.07 "Hg

Humidity: 100%

Dew Point: 45 °F

Location of HelsingborgLocation

Past Weather in Helsingborg — Graph

°F

Helsingborg Temperature Yesterday

Maximum temperature yesterday: 57 °F (at 12:20 pm)
Minimum temperature yesterday: 48 °F (at 8:50 pm)
Average temperature yesterday: 53 °F

High & Low Weather Summary for the Past Weeks

 TemperatureHumidityPressure
High63 °F (Oct 14, 12:20 am)100% (Oct 6, 5:20 am)30.27 "Hg (Oct 6, 5:20 am)
Low23 °F (Oct 6, 7:20 am)46% (Oct 6, 2:50 pm)29.45 "Hg (Oct 8, 1:50 pm)
Average50 °F92%29.76 "Hg
* Reported Oct 6 5:20 am — Oct 21 5:50 am, Helsingborg. Weather by CustomWeather, © 2019

Note: Actual official high and low records may vary slightly from our data, if they occured in-between our weather recording intervals... More about our weather records

Advertising

Helsingborg Weather History for the Previous 24 Hours

Scroll right to see more
 ConditionsComfort  
Time TempWeatherWind HumidityBarometerVisibility
5:50 am
Mon, Oct 21
45 °FFog.No wind100%30.04 "Hg0 mi
5:20 am45 °FFog.No wind100%30.04 "Hg0 mi
4:50 am45 °FFog.No wind100%30.04 "Hg0 mi
4:20 am46 °FFog.No wind100%30.04 "Hg0 mi
3:50 am46 °FFog.No wind100%30.04 "Hg0 mi
3:20 am48 °FDense fog.No wind100%30.04 "Hg0 mi
2:50 am48 °FFog.No wind100%30.01 "Hg0 mi
1:50 am48 °FFog.No wind100%30.01 "Hg0 mi
1:20 am48 °FFog.No wind100%29.98 "Hg0 mi
12:50 am48 °FFog.2 mph100%29.98 "Hg0 mi
12:20 am48 °FDense fog.No wind100%29.98 "Hg0 mi
11:50 pm
Sun, Oct 20
48 °FDense fog.1 mph100%29.98 "Hg0 mi
11:20 pm48 °FCool.No wind100%29.98 "Hg3 mi
10:50 pm48 °FFog.No wind100%29.98 "Hg0 mi
10:20 pm48 °FLight fog.No wind100%29.95 "Hg1 mi
9:50 pm48 °FLight fog.No wind100%29.95 "Hg1 mi
9:20 pm48 °FPassing clouds.No wind100%29.95 "Hg1 mi
8:50 pm48 °FFog.No wind100%29.95 "Hg4 mi
8:20 pm50 °FFog.No wind100%29.92 "Hg4 mi
7:50 pm52 °FFog.No wind100%29.92 "Hg6 mi
7:20 pm52 °FPassing clouds.No wind100%29.92 "HgN/A
6:50 pm52 °FCool.3 mph100%29.89 "HgN/A
6:20 pm54 °FCool.3 mph94%29.89 "HgN/A
5:50 pm54 °FCool.3 mph94%29.89 "HgN/A
5:20 pm55 °FCool.3 mph88%29.89 "HgN/A
4:50 pm55 °FCool.3 mph88%29.89 "HgN/A
4:20 pm55 °FPassing clouds.1 mph88%29.89 "HgN/A
3:50 pm55 °FCool.3 mph82%29.86 "HgN/A
3:20 pm57 °FPassing clouds.3 mph82%29.86 "HgN/A
2:50 pm57 °FCool.3 mph77%29.86 "HgN/A
2:20 pm57 °FPassing clouds.5 mph77%29.86 "HgN/A
1:50 pm57 °FPassing clouds.6 mph77%29.86 "HgN/A
1:20 pm55 °FPassing clouds.6 mph82%29.86 "HgN/A
12:50 pm55 °FPassing clouds.7 mph88%29.83 "HgN/A
12:20 pm57 °FScattered clouds.6 mph82%29.83 "HgN/A
11:50 am55 °FPassing clouds.3 mph88%29.83 "HgN/A
11:20 am55 °FScattered clouds.6 mph88%29.83 "HgN/A
10:50 am55 °FScattered clouds.5 mph94%29.83 "HgN/A
10:20 am54 °FPassing clouds.3 mph94%29.83 "HgN/A
9:50 am54 °FScattered clouds.3 mph100%29.80 "HgN/A
9:20 am54 °FCool.3 mph94%29.80 "HgN/A
8:50 am54 °FPassing clouds.3 mph94%29.77 "HgN/A
8:20 am52 °FPassing clouds.5 mph100%29.77 "HgN/A
7:50 am50 °FScattered clouds.3 mph100%29.77 "Hg4 mi
7:20 am52 °FFog.3 mph100%29.77 "Hg1 mi
Weather by CustomWeather, © 2019

See weather overview